• En España
  • Lista de países
  • Para 7 días
  • Temperatura del agua
  • Mapa Satelital
  • El tiempo en el mapa
  • Informadores
  • user-avatar
    Iniciar sesión

    Tiempo cada hora Varvarinka

    Hoy, 21 Agosto, Martes

    Tiempo Temperatura Precipitaciones Viento Presión Humedad
    00:00 +18°C° 0 mm 3 mps 741 mmHg 78%
    01:00 +18°C° 0 mm 3 mps 741 mmHg 80%
    02:00 +18°C° 0 mm 3 mps 741 mmHg 82%
    03:00 +18°C° 0 mm 3 mps 741 mmHg 84%
    04:00 +18°C° 0 mm 3 mps 741 mmHg 84%
    05:00 +18°C° 0 mm 3 mps 740 mmHg 84%
    06:00 +17°C° 0 mm 4 mps 740 mmHg 85%
    07:00 +19°C° 0 mm 4 mps 740 mmHg 79%
    08:00 +21°C° 0 mm 5 mps 740 mmHg 73%
    09:00 +23°C° 0 mm 6 mps 739 mmHg 65%
    10:00 +24°C° 0 mm 7 mps 739 mmHg 61%
    11:00 +26°C° 0 mm 7 mps 739 mmHg 58%
    12:00 +27°C° 0 mm 8 mps 738 mmHg 54%
    13:00 +27°C° 0,5 mm 8 mps 738 mmHg 56%
    14:00 +27°C° 0,5 mm 8 mps 738 mmHg 58%
    15:00 +27°C° 0,5 mm 8 mps 737 mmHg 60%
    16:00 +26°C° 1,2 mm 7 mps 737 mmHg 66%
    17:00 +23°C° 1,2 mm 7 mps 737 mmHg 72%
    18:00 +22°C° 1,2 mm 6 mps 737 mmHg 78%
    19:00 +21°C° 0,5 mm 5 mps 737 mmHg 82%
    20:00 +19°C° 0,5 mm 4 mps 737 mmHg 85%
    21:00 +18°C° 0,5 mm 4 mps 738 mmHg 89%
    22:00 +17°C° 0 mm 3 mps 738 mmHg 88%
    23:00 +16°C° 0 mm 3 mps 738 mmHg 88%

    Mañana, 22 Agosto, Miércoles

    Tiempo Temperatura Precipitaciones Viento Presión Humedad
    00:00 +14°C° 0 mm 3 mps 739 mmHg 87%
    01:00 +14°C° 0 mm 3 mps 739 mmHg 87%
    02:00 +13°C° 0 mm 3 mps 739 mmHg 87%
    03:00 +12°C° 0 mm 3 mps 740 mmHg 87%
    04:00 +12°C° 0 mm 3 mps 740 mmHg 88%
    05:00 +11°C° 0 mm 3 mps 740 mmHg 88%
    06:00 +11°C° 0 mm 3 mps 741 mmHg 88%
    07:00 +12°C° 0 mm 3 mps 741 mmHg 82%
    08:00 +14°C° 0 mm 4 mps 741 mmHg 75%
    09:00 +15°C° 0 mm 5 mps 742 mmHg 69%
    10:00 +16°C° 0 mm 5 mps 742 mmHg 64%
    11:00 +17°C° 0 mm 5 mps 742 mmHg 58%
    12:00 +19°C° 0 mm 6 mps 743 mmHg 53%
    13:00 +19°C° 0 mm 6 mps 743 mmHg 52%
    14:00 +19°C° 0 mm 6 mps 743 mmHg 51%
    15:00 +20°C° 0 mm 6 mps 743 mmHg 50%
    16:00 +19°C° 0 mm 5 mps 743 mmHg 53%
    17:00 +19°C° 0 mm 4 mps 744 mmHg 57%
    18:00 +18°C° 0 mm 3 mps 744 mmHg 61%
    19:00 +17°C° 0 mm 3 mps 745 mmHg 64%
    20:00 +14°C° 0 mm 3 mps 745 mmHg 67%
    21:00 +13°C° 0 mm 3 mps 745 mmHg 70%
    22:00 +12°C° 0 mm 3 mps 746 mmHg 71%
    23:00 +13°C° 0 mm 2 mps 746 mmHg 73%

    Pasado mañana, 23 Agosto, Jueves

    Tiempo Temperatura Precipitaciones Viento Presión Humedad
    00:00 +12°C° 0 mm 2 mps 746 mmHg 75%
    01:00 +10°C° 0 mm 2 mps 747 mmHg 76%
    02:00 +10°C° 0 mm 2 mps 747 mmHg 77%
    03:00 +10°C° 0 mm 2 mps 747 mmHg 78%
    04:00 +9°C° 0 mm 2 mps 748 mmHg 79%
    05:00 +9°C° 0 mm 2 mps 748 mmHg 80%
    06:00 +9°C° 0 mm 2 mps 748 mmHg 82%
    07:00 +12°C° 0 mm 2 mps 748 mmHg 76%
    08:00 +13°C° 0 mm 2 mps 748 mmHg 70%
    09:00 +15°C° 0 mm 2 mps 748 mmHg 63%
    10:00 +16°C° 0 mm 2 mps 749 mmHg 58%
    11:00 +17°C° 0 mm 2 mps 749 mmHg 53%
    12:00 +19°C° 0 mm 2 mps 749 mmHg 48%
    13:00 +19°C° 0 mm 2 mps 748 mmHg 47%
    14:00 +20°C° 0 mm 2 mps 748 mmHg 46%
    15:00 +20°C° 0 mm 2 mps 748 mmHg 44%
    16:00 +21°C° 0 mm 1 mps 748 mmHg 48%
    17:00 +21°C° 0 mm 1 mps 748 mmHg 51%
    18:00 +20°C° 0 mm 1 mps 747 mmHg 55%
    19:00 +19°C° 0 mm 1 mps 747 mmHg 58%
    20:00 +15°C° 0 mm 0 mps 748 mmHg 60%
    21:00 +13°C° 0 mm 0 mps 748 mmHg 63%
    22:00 +13°C° 0 mm 0 mps 748 mmHg 65%
    23:00 +14°C° 0 mm 1 mps 748 mmHg 66%

    24 Agosto, Viernes

    Tiempo Temperatura Precipitaciones Viento Presión Humedad
    00:00 +13°C° 0 mm 1 mps 748 mmHg 67%
    01:00 +13°C° 0 mm 1 mps 748 mmHg 68%
    02:00 +13°C° 0 mm 1 mps 748 mmHg 69%
    03:00 +12°C° 0 mm 1 mps 748 mmHg 71%
    04:00 +12°C° 0 mm 1 mps 748 mmHg 72%
    05:00 +12°C° 0 mm 1 mps 748 mmHg 73%
    06:00 +12°C° 0 mm 1 mps 748 mmHg 74%
    07:00 +14°C° 0 mm 1 mps 748 mmHg 69%
    08:00 +15°C° 0 mm 1 mps 748 mmHg 64%
    09:00 +17°C° 0 mm 2 mps 748 mmHg 59%
    10:00 +19°C° 0 mm 2 mps 748 mmHg 55%
    11:00 +20°C° 0 mm 2 mps 748 mmHg 51%
    12:00 +21°C° 0 mm 2 mps 747 mmHg 47%
    13:00 +23°C° 0 mm 2 mps 747 mmHg 46%
    14:00 +23°C° 0 mm 2 mps 747 mmHg 45%
    15:00 +23°C° 0 mm 2 mps 747 mmHg 43%
    16:00 +23°C° 0 mm 2 mps 746 mmHg 47%
    17:00 +23°C° 0 mm 1 mps 746 mmHg 50%
    18:00 +23°C° 0 mm 1 mps 746 mmHg 54%
    19:00 +21°C° 0 mm 1 mps 746 mmHg 56%
    20:00 +19°C° 0 mm 1 mps 746 mmHg 59%
    21:00 +16°C° 0 mm 1 mps 746 mmHg 61%
    22:00 +16°C° 0 mm 2 mps 746 mmHg 62%
    23:00 +15°C° 0 mm 2 mps 746 mmHg 64%

    25 Agosto, Sábado

    Tiempo Temperatura Precipitaciones Viento Presión Humedad
    00:00 +15°C° 0 mm 2 mps 746 mmHg 65%
    01:00 +14°C° 0 mm 2 mps 746 mmHg 66%
    02:00 +14°C° 0 mm 2 mps 746 mmHg 67%
    03:00 +14°C° 0 mm 2 mps 746 mmHg 68%
    04:00 +14°C° 0 mm 2 mps 746 mmHg 69%
    05:00 +13°C° 0 mm 2 mps 746 mmHg 70%
    06:00 +13°C° 0 mm 2 mps 746 mmHg 71%
    07:00 +15°C° 0 mm 2 mps 746 mmHg 67%
    08:00 +17°C° 0 mm 2 mps 746 mmHg 63%
    09:00 +19°C° 0 mm 3 mps 746 mmHg 59%
    10:00 +20°C° 0 mm 3 mps 746 mmHg 55%
    11:00 +22°C° 0 mm 3 mps 746 mmHg 50%
    12:00 +23°C° 0 mm 4 mps 746 mmHg 46%
    13:00 +25°C° 0 mm 4 mps 746 mmHg 45%
    14:00 +25°C° 0 mm 4 mps 745 mmHg 45%
    15:00 +25°C° 0 mm 4 mps 745 mmHg 44%
    16:00 +25°C° 0 mm 3 mps 745 mmHg 48%
    17:00 +24°C° 0 mm 3 mps 745 mmHg 52%
    18:00 +24°C° 0 mm 2 mps 744 mmHg 56%
    19:00 +21°C° 0 mm 2 mps 745 mmHg 59%
    20:00 +19°C° 0 mm 2 mps 745 mmHg 61%
    21:00 +18°C° 0 mm 2 mps 745 mmHg 63%
    22:00 +17°C° 0 mm 3 mps 745 mmHg 63%
    23:00 +17°C° 0 mm 3 mps 745 mmHg 63%

    26 Agosto, Domingo

    Tiempo Temperatura Precipitaciones Viento Presión Humedad
    00:00 +16°C° 0 mm 3 mps 745 mmHg 63%
    01:00 +16°C° 0 mm 3 mps 745 mmHg 63%
    02:00 +14°C° 0 mm 3 mps 745 mmHg 63%
    03:00 +14°C° 0 mm 3 mps 745 mmHg 63%
    04:00 +14°C° 0 mm 3 mps 745 mmHg 64%
    05:00 +13°C° 0 mm 3 mps 745 mmHg 66%
    06:00 +13°C° 0 mm 3 mps 745 mmHg 67%
    07:00 +16°C° 0 mm 3 mps 745 mmHg 64%
    08:00 +18°C° 0 mm 3 mps 746 mmHg 62%
    09:00 +20°C° 0 mm 3 mps 746 mmHg 59%
    10:00 +21°C° 0 mm 4 mps 746 mmHg 54%
    11:00 +23°C° 0 mm 4 mps 746 mmHg 49%
    12:00 +26°C° 0 mm 4 mps 746 mmHg 44%
    13:00 +26°C° 0 mm 4 mps 745 mmHg 43%
    14:00 +26°C° 0 mm 4 mps 745 mmHg 42%
    15:00 +27°C° 0 mm 4 mps 745 mmHg 41%
    16:00 +26°C° 0 mm 3 mps 745 mmHg 46%
    17:00 +25°C° 0 mm 3 mps 744 mmHg 51%
    18:00 +25°C° 0 mm 2 mps 744 mmHg 56%
    19:00 +22°C° 0 mm 3 mps 744 mmHg 59%
    20:00 +21°C° 0 mm 3 mps 744 mmHg 62%
    21:00 +19°C° 0 mm 3 mps 744 mmHg 64%
    22:00 +18°C° 0 mm 3 mps 744 mmHg 65%
    23:00 +18°C° 0 mm 3 mps 744 mmHg 66%
    Mostrar más